Regional Weather Roundup
Issued by NWS

Home | Current Version | Previous Version | Text Only | Print | Product List | Glossary Off
Versions: 1 2 3 4 5 6 7 8 9 10 11 12 13 14 15 16 17 18 19 20 21 22 23 24 25 26 27 28 29 30 31 32 33 34 35 36 37 38 39 40 41 42 43 44 45 46 47 48 49 50

000
ASUS43 KMKX 300021
RWRWI

WISCONSIN REGIONAL WEATHER ROUNDUP
NATIONAL WEATHER SERVICE MILWAUKEE/SULLIVAN WI
700 PM CDT SUN MAY 29 2016

NOTE: "FAIR" INDICATES FEW OR NO CLOUDS BELOW 12,000 FEET WITH NO
SIGNIFICANT WEATHER AND/OR OBSTRUCTIONS TO VISIBILITY.

WIZ001-002-006>008-014>016-023>028-300100-
NORTHWEST WISCONSIN

CITY           SKY/WX    TMP DP  RH WIND       PRES   REMARKS
SUPERIOR ARPT  SUNNY     71  54  54 W14       29.89R
6HR MIN TEMP:  65; 6HR MAX TEMP:  73;

ASHLAND        SUNNY     70  55  59 NW6       29.88S
6HR MIN TEMP:  65; 6HR MAX TEMP:  71; 6HR PCP: TRACE;

HAYWARD        SUNNY     72  54  53 VRB6      29.91S
6HR MIN TEMP:  63; 6HR MAX TEMP:  73; 6HR PCP: TRACE;

SIREN          SUNNY     73  51  45 NW10G17   29.92S
6HR MIN TEMP:  69; 6HR MAX TEMP:  75;

CUMBERLAND     MOSUNNY   70  54  56 NW7       29.93S
RICE LAKE      MOSUNNY   72  54  53 W8        29.93F
6HR MIN TEMP:  68; 6HR MAX TEMP:  74;

CHETEK         SUNNY     73  56  56 W8G16     29.92S
6HR MIN TEMP:  68; 6HR MAX TEMP:  74;

LADYSMITH      SUNNY     72  56  57 W12       29.93S
6HR MIN TEMP:  67; 6HR MAX TEMP:  73;

EAU CLAIRE     SUNNY     75  55  49 W13G18    29.92S
6HR MIN TEMP:  66; 6HR MAX TEMP:  76; 6HR PCP:  0.05;

MENOMONIE      SUNNY     76  56  49 W14       29.93S
6HR MIN TEMP:  70; 6HR MAX TEMP:  77;

NEW RICHMOND   SUNNY     73  55  51 W8        29.94S
6HR MIN TEMP:  70; 6HR MAX TEMP:  76;

OSCEOLA        MOSUNNY   75  57  53 W8        29.95S
6HR MIN TEMP:  70; 6HR MAX TEMP:  76;

$$

WIZ003>005-009-010-017-018-300100-
NORTH CENTRAL WISCONSIN

CITY           SKY/WX    TMP DP  RH WIND       PRES   REMARKS
MANITOWISH WTR NOT AVBL
ARBOR VITAE    CLOUDY    64  57  76 NW7       29.91R
6HR MIN TEMP:  64; 6HR MAX TEMP:  72; 6HR PCP:  0.03;

WOODRUFF       CLOUDY    64  57  76 NW7       29.91R
6HR MIN TEMP:  64; 6HR MAX TEMP:  72; 6HR PCP:  0.03;

RHINELANDER    CLOUDY    68  54  60 W9        29.91R
6HR MIN TEMP:  66; 6HR MAX TEMP:  73; 6HR PCP: TRACE;

EAGLE RIVER      N/A     64  54  68 NW12G17   29.90S
LAND O LAKES   CLOUDY    62  58  87 W10G18    29.91R
6HR MIN TEMP:  62; 6HR MAX TEMP:  69; 6HR PCP:  0.02;

PHILLIPS       MOSUNNY   67  56  66 NW5       29.91S
6HR MIN TEMP:  65; 6HR MAX TEMP:  71;

TOMAHAWK       MOSUNNY   69  54  59 W9G22     29.92S
6HR MIN TEMP:  63; 6HR MAX TEMP:  71;

MEDFORD        SUNNY     69  56  62 W8        29.93S
6HR MIN TEMP:  65; 6HR MAX TEMP:  71;

MERRILL        SUNNY    N/A N/A N/A W15       29.92R
$$

WIZ029-030-035-036-043>047-300100-
CENTRAL WISCONSIN

CITY           SKY/WX    TMP DP  RH WIND       PRES   REMARKS
WAUSAU         MOSUNNY   73  55  53 W18       29.90R
6HR MIN TEMP:  66; 6HR MAX TEMP:  75; 6HR PCP:  0.03;

MOSINEE        NOT AVBL
MARSHFIELD     SUNNY     72  57  59 W10       29.93R
6HR MIN TEMP:  64; 6HR MAX TEMP:  75; 6HR PCP:  0.05;

STEVENS POINT  MOSUNNY   72  55  56 W7G20     29.93R
6HR MIN TEMP:  64; 6HR MAX TEMP:  73; 6HR PCP:  0.03;

WAUPACA        SUNNY     76  56  48 W14G20    29.91S
6HR MIN TEMP:  70; 6HR MAX TEMP:  78;

WAUTOMA        SUNNY     77  55  46 W14       29.92S
WISC RAPIDS    SUNNY     76  51  41 W15       29.93S
6HR MIN TEMP:  69; 6HR MAX TEMP:  78; 6HR PCP: TRACE;

CAMP DOUGLAS   CLOUDY    73  65  77 W8        29.93S
6HR MIN TEMP:  70; 6HR MAX TEMP:  78;

$$

WIZ011>013-019>022-031-037>040-048>050-300100-
NORTHEAST WISCONSIN

CITY           SKY/WX    TMP DP  RH WIND       PRES   REMARKS
ANTIGO         MOSUNNY   69  58  67 W9G18     29.91R
6HR MIN TEMP:  63; 6HR MAX TEMP:  70; 6HR PCP:  0.02;

SHAWANO        MOSUNNY   75  58  54 W8        29.89R
6HR MIN TEMP:  67; 6HR MAX TEMP:  76; 6HR PCP:  0.07;

OCONTO         MOSUNNY   73  62  66 W10G16    29.86S
6HR MIN TEMP:  67; 6HR MAX TEMP:  76;

STURGEON BAY   NOT AVBL
GREEN BAY      SUNNY     75  60  59 W8        29.88S
6HR MIN TEMP:  68; 6HR MAX TEMP:  75;

MANITOWOC      SUNNY     75  60  59 W12       29.90S
6HR MIN TEMP:  70; 6HR MAX TEMP:  75; 6HR PCP: TRACE;

APPLETON       PTSUNNY   73  55  53 W12G21    29.89F
CLINTONVILLE   MOSUNNY   73  54  49 W12G26    29.89S
OSHKOSH        MOSUNNY   76  56  49 W8        29.90S
6HR MIN TEMP:  69; 6HR MAX TEMP:  76; 6HR PCP:  0.01;

$$

WIZ032>034-041-042-053>061-300100-
SOUTHWEST WISCONSIN

CITY           SKY/WX    TMP DP  RH WIND       PRES   REMARKS
LA CROSSE      CLOUDY    74  61  63 W7        29.94R
6HR MIN TEMP:  73; 6HR MAX TEMP:  82; 6HR PCP:  0.04;

SPARTA         PTSUNNY   75  58  54 W7        29.95S
6HR MIN TEMP:  73; 6HR MAX TEMP:  79;

VIROQUA        MOSUNNY   73  58  59 NW7       29.96F
6HR MIN TEMP:  68; 6HR MAX TEMP:  77;

BOSCOBEL       MOSUNNY   79  61  53 S7        29.94F HX  80
6HR MIN TEMP:  75; 6HR MAX TEMP:  81;

PRAIRIE DU CHI CLOUDY    78  56  47 W9        29.95F
6HR MIN TEMP:  75; 6HR MAX TEMP:  79;

PLATTEVILLE    MOSUNNY   74  61  62 W5        29.98S
6HR MIN TEMP:  74; 6HR MAX TEMP:  79;

$$

WIZ056-057-062-063-064-067-068-300100-
SOUTH CENTRAL WISCONSIN

CITY           SKY/WX    TMP DP  RH WIND       PRES   REMARKS
REEDSBURG      MOSUNNY   75  60  58 W8        29.94S
6HR MIN TEMP:  73; 6HR MAX TEMP:  78;

BARABOO/DELLS  PTSUNNY   74  57  55 SW7       29.95S
6HR MIN TEMP:  72; 6HR MAX TEMP:  79;

LONE ROCK      SUNNY     74  63  68 CALM      29.95F
6HR MIN TEMP:  71; 6HR MAX TEMP:  81; 6HR PCP:  0.05;

MINERAL POINT  SUNNY     73  57  56 SW6       29.98S
MADISON        CLOUDY    74  57  55 VRB5      29.96S
6HR MIN TEMP:  73; 6HR MAX TEMP:  79;

MIDDLETON      CLOUDY    74  59  60 SW9       29.97S
6HR MIN TEMP:  72; 6HR MAX TEMP:  79;

WATERTOWN      CLOUDY    75  58  55 W13       29.95S
6HR MIN TEMP:  73; 6HR MAX TEMP:  78;

MONROE         SUNNY     77  54  44 W16G24    29.98F
JANESVILLE     MOSUNNY   79  55  44 W15       29.96F
$$

WIZ051-052-058>065-066-070>072-300100-
SOUTHEAST WISCONSIN

CITY           SKY/WX    TMP DP  RH WIND       PRES   REMARKS
MILWAUKEE      MOSUNNY   78  55  44 W13       29.94S
6HR MIN TEMP:  75; 6HR MAX TEMP:  80;

WAUKESHA       PTSUNNY   73  54  49 W17       29.96S
MILWAUKEE/TIMM MOSUNNY   79  52  38 MISG      29.95S
RACINE         SUNNY     78  54  43 W10G17    29.96S
6HR MIN TEMP:  74; 6HR MAX TEMP:  80;

BURLINGTON     CLOUDY    74  55  51 W5        29.97S
6HR MIN TEMP:  74; 6HR MAX TEMP:  78;

KENOSHA        SUNNY     76  57  51 W9        29.96S
6HR MIN TEMP:  75; 6HR MAX TEMP:  80;

FOND DU LAC    MOSUNNY   76  57  51 W8        29.92S
6HR MIN TEMP:  72; 6HR MAX TEMP:  77; 6HR PCP:  0.01;

SHEBOYGAN      SUNNY     75  59  57 W9        29.91S
6HR MIN TEMP:  70; 6HR MAX TEMP:  77; 6HR PCP: TRACE;

WEST BEND      MOSUNNY   75  52  43 W14G22    29.94S
JUNEAU         SUNNY     74  58  55 SW14      29.95S
6HR MIN TEMP:  71; 6HR MAX TEMP:  76;

$$

LSZ147-162-300100-
LAKE SUPERIOR

STATION/POSITION TIME  TEMP    WIND        PRES    WAVE
                       AIR SEA DIR/SP/G            HT/PER
                 (UTC) (F)     (DEG/KT/KT) (MB)    (FT/S)
W MID LAKE BUOY  2350   45 38  260/ 10/ 12 1010.4R   2/ 4
DEVILS ISLAND    0000   52     250/ 16/ 18 1011.6R
SAXON HARBOR     2300   67     290/  9/ 15 1011.2
$$

LMZ867-665-643>646-300100-
LAKE MICHIGAN

STATION/POSITION TIME  TEMP    WIND        PRES    WAVE
                       AIR SEA DIR/SP/G            HT/PER
                 (UTC) (F)     (DEG/KT/KT) (MB)    (FT/S)
CHAMBERS ISLAND  2340   69     210/  5/ 10 1010.8R
N MID LAKE BUOY  2250   52 48  190/ 16/ 17 1009.8F   3/ 5
NORTHPORT PIER   2300   71     220/  6/ 16 1010.2S
KEWAUNEE LAKESHO 2300                      1011.1F
SHEBOYGAN LAKESH 0000   77     260/ 11C1F1C2F2C3F3C4F4C5F5C6F6C7F7C8M1C9M2Ca!



USA.gov is the U.S. government's official web portal to all federal, state and local government web resources and services.